Wind_Speed
82 80 77 77 75 76 75 76 74 74 71 75 74 75 69 72 73 70 66 69 73 77 76 74 76 73 72 72 74 75 72 70 67 63 63 65 67 64 59 56 59 63 67
81 78 77 75 77 76 74 75 73 73 73 71 73 76 74 75 73 73 71 74 74 76 76 76 74 71 74 75 72 72 67 59 59 56 62 62 57 62 61 60 64 65 65
80 76 74 74 73 73 72 73 73 71 71 70 74 75 78 78 77 78 79 77 78 78 75 72 74 74 73 71 67 62 55 51 55 55 56 60 58 60 65 66 63 65 72
79 78 75 73 72 71 71 73 69 68 68 71 73 74 78 76 76 77 77 79 81 77 76 80 72 69 61 56 54 52 48 58 55 58 54 62 62 63 67 73 69 80 74
76 74 69 67 65 72 72 70 69 62 65 69 72 74 72 73 74 78 79 78 77 77 75 69 67 62 60 50 50 47 57 56 56 57 64 65 64 70 75 77 79 85 68
76 72 66 66 72 67 60 59 67 65 58 61 64 67 67 73 79 77 77 74 73 76 72 70 62 53 47 48 49 53 56 62 62 64 68 72 72 74 76 81 80 73 70
60 58 59 52 52 56 61 63 57 52 53 61 61 65 71 72 71 76 74 70 66 64 67 67 61 60 55 48 51 56 54 59 65 67 67 72 80 80 83 76 70 74 91
52 49 50 50 46 50 46 50 47 49 51 52 55 58 63 66 65 66 62 60 64 58 56 56 55 58 54 54 58 62 63 66 66 72 73 74 74 74 76 75 86 98 97
37 19 26 31 43 43 41 42 44 47 54 60 57 53 59 60 59 62 63 59 56 56 53 54 55 57 61 62 62 64 65 68 67 67 67 73 76 84 85 90 96 96 94
47 38 28 30 43 38 29 39 49 49 44 46 52 55 63 63 62 60 63 65 59 60 56 60 61 64 63 58 66 70 67 71 73 78 82 82 88 94 100 104 102 92 91
40 40 39 40 27 26 40 41 39 45 43 49 61 65 46 51 62 65 63 57 56 57 55 53 56 56 57 62 67 72 78 79 83 87 86 97 101 105 101 93 91 89 84
42 44 45 45 47 42 58 50 51 49 54 59 56 60 63 64 73 63 60 58 59 63 61 61 66 73 74 77 82 85 85 92 93 99 101 103 104 95 90 85 81 77 79
50 48 52 46 50 50 52 56 61 47 49 60 68 64 66 70 58 68 65 70 68 73 74 79 78 79 83 89 94 95 101 100 104 100 99 89 82 79 79 79 78 77 75
57 65 61 59 56 57 61 66 64 60 61 59 60 62 65 69 73 73 69 70 78 81 81 81 88 90 93 95 96 101 101 94 94 97 90 87 87 82 79 76 75 73 73
60 64 68 73 67 57 60 65 67 66 58 70 67 66 64 72 70 72 78 83 83 83 86 90 91 97 99 97 98 89 88 89 87 83 86 84 81 82 81 77 81 80 78
49 59 70 70 71 67 57 63 69 70 69 65 71 69 72 68 70 81 79 86 91 93 96 89 92 86 88 86 89 89 87 80 77 76 78 77 78 77 76 75 75 75 74
39 48 50 62 52 59 65 60 71 78 76 72 76 71 74 79 78 80 85 82 79 86 93 89 83 87 89 94 89 84 74 76 73 78 78 79 80 80 80 78 76 75 75
36 42 43 46 47 48 47 54 68 75 76 75 74 80 79 80 87 91 91 88 89 83 80 83 81 83 87 83 82 78 74 77 78 82 83 85 86 86 81 78 75 74 73
41 44 46 50 50 49 55 63 67 71 69 73 78 80 84 84 81 78 74 78 79 79 75 79 81 78 78 79 76 78 80 82 85 87 90 90 89 85 80 77 77 77 78
45 46 51 53 58 56 61 62 60 64 65 67 67 68 67 65 69 69 72 72 76 76 75 74 75 77 76 78 81 83 84 87 90 93 93 91 89 87 85 85 86 88 89
50 47 51 54 53 56 56 58 63 63 60 58 60 60 63 67 68 69 71 71 71 71 74 75 76 76 77 82 85 87 91 93 96 97 95 93 91 90 91 93 95 96 96
52 56 54 59 63 62 61 57 59 56 54 56 58 61 63 64 64 64 63 66 70 73 75 76 79 83 85 87 88 90 93 97 98 96 94 93 94 96 99 101 103 103 102
60 60 61 61 55 56 56 52 49 51 52 54 56 56 54 54 56 59 64 69 72 75 78 81 83 80 78 83 89 93 96 98 95 94 95 97 102 106 111 109 107 104 103
45 46 51 52 52 50 47 47 47 46 44 45 45 47 51 56 61 64 68 71 74 77 79 75 74 78 83 87 91 94 96 93 93 94 100 104 108 109 109 107 104 104 105
42 42 44 46 46 45 42 35 35 37 39 40 44 50 56 60 62 62 65 67 68 69 71 75 79 83 87 90 92 90 90 93 97 103 107 109 108 108 108 110 105 104 104
42 36 36 33 30 30 32 34 38 40 43 43 48 53 55 57 62 64 64 64 66 70 75 79 83 87 88 91 88 88 93 98 103 105 105 104 105 106 108 110 111 108 106
Wind_Direction
264 264 265 266 268 271 272 274 275 275 276 278 278 281 280 281 282 283 277 277 280 283 284 282 284 285 284 282 282 282 282 281 279 282 279 282 287 286 285 286 298 301 294
262 264 266 267 268 270 272 271 274 276 275 278 278 280 282 280 285 284 283 280 285 286 287 285 285 285 283 287 283 282 279 282 279 281 278 281 290 285 284 292 303 300 294
263 265 266 268 271 270 272 271 273 276 278 278 281 282 282 282 283 282 282 283 285 286 286 285 288 284 282 281 283 280 281 279 278 288 282 285 293 286 289 292 296 296 299
263 268 269 269 272 274 275 276 272 272 274 275 275 276 278 278 278 278 280 282 285 285 284 284 284 283 286 282 283 283 280 275 281 287 285 290 289 286 290 291 290 302 298
267 271 274 275 271 269 271 271 271 274 274 269 267 270 273 274 277 277 281 282 282 284 286 286 287 286 283 282 278 282 276 274 279 278 284 288 281 290 290 294 296 298 289
264 269 267 270 271 272 272 267 274 276 268 269 266 270 272 271 276 278 280 281 284 285 285 279 282 282 282 282 283 280 278 274 287 282 286 286 286 293 294 296 296 292 293
268 272 273 270 268 263 266 276 279 273 265 268 268 268 270 273 278 276 277 280 283 279 278 284 286 286 279 275 278 279 284 283 284 291 288 288 295 297 297 293 288 289 299
262 263 260 262 268 267 268 274 273 271 267 269 269 272 273 273 275 278 281 281 283 285 284 282 283 280 278 273 276 280 287 289 286 291 293 291 289 293 294 291 294 298 297
246 261 256 263 262 267 287 275 275 280 275 272 275 274 272 277 280 278 280 282 282 284 288 288 282 279 279 279 283 285 284 287 293 290 289 292 292 296 293 296 296 297 297
251 237 222 238 258 284 275 263 266 278 283 274 261 268 270 283 281 280 282 282 282 287 284 294 291 294 293 286 291 289 289 290 292 294 294 291 294 293 294 293 296 299 298
216 198 203 225 226 254 259 270 273 278 276 261 272 277 273 282 282 293 295 287 281 285 279 292 289 287 288 291 289 287 289 290 287 288 290 293 294 294 294 296 299 298 298
196 204 199 208 217 217 229 247 249 268 268 273 274 274 281 288 288 286 284 280 284 282 288 291 287 287 285 286 287 292 290 290 294 296 294 293 296 296 296 296 295 294 293
200 203 202 212 209 210 225 234 242 248 262 266 270 276 278 284 275 282 278 284 286 286 285 282 286 286 286 290 292 293 296 296 298 298 295 296 295 298 295 295 294 293 290
211 211 212 217 230 228 229 231 241 248 252 259 265 266 269 270 275 277 276 281 281 283 283 281 281 289 290 288 294 292 295 299 295 297 299 299 301 298 297 295 291 288 286
214 218 221 224 228 234 239 244 246 249 256 256 260 265 267 274 276 278 279 278 278 282 285 285 287 292 295 295 295 296 295 297 295 296 299 298 297 296 295 294 292 290 288
215 220 220 226 234 238 244 239 246 250 248 259 262 269 268 270 272 272 277 280 281 285 288 291 292 296 296 296 294 294 299 299 297 297 299 300 299 298 297 295 295 294 292
227 227 232 232 241 248 247 244 245 250 252 256 257 264 269 270 271 277 281 287 291 290 288 292 293 293 295 297 302 298 296 295 295 295 296 296 296 296 294 293 293 292 291
236 233 237 236 246 254 264 258 249 249 255 259 264 266 267 277 272 274 284 285 289 291 291 292 295 298 300 298 296 297 297 297 297 298 298 299 297 296 293 292 292 290 288
239 243 253 255 257 255 253 248 251 254 262 265 266 269 269 276 277 283 287 288 290 292 294 297 297 297 297 296 296 296 296 297 297 298 298 298 298 296 293 290 289 287 287
239 246 251 251 249 255 254 263 260 267 269 277 276 278 278 282 287 290 291 293 293 294 295 294 294 294 296 296 295 296 298 299 299 300 300 298 296 294 292 289 288 288 287
251 255 254 258 263 269 277 277 276 278 279 277 277 282 284 286 288 290 291 292 292 291 292 292 293 295 295 296 297 299 300 300 301 300 299 298 296 294 292 291 291 290 289
249 253 261 264 268 271 274 278 276 277 279 281 281 281 282 286 288 289 291 291 290 291 292 292 293 293 293 294 297 299 301 303 302 301 301 300 298 297 296 295 295 293 291
251 255 257 267 268 272 271 273 274 275 276 278 280 282 285 286 288 289 289 292 293 294 294 294 294 295 298 299 301 301 301 303 303 303 302 302 301 301 300 299 298 297 295
253 258 262 263 273 273 270 270 273 278 280 283 286 288 289 290 291 293 294 294 294 293 294 296 299 300 300 300 301 302 303 303 303 303 302 302 302 301 299 298 297 296 295
271 273 272 271 270 271 273 278 284 286 289 292 293 292 293 294 295 297 298 299 300 300 300 301 302 300 300 300 302 303 304 305 304 303 302 303 302 300 299 298 297 295 293
273 274 275 272 270 281 283 288 290 288 292 294 293 294 296 298 301 301 300 301 303 303 302 301 301 302 303 303 304 306 307 305 304 303 302 301 300 300 299 298 298 298 296
Height
10820 10827 10834 10836 10837 10838 10838 10838 10839 10839 10841 10839 10839 10837 10837 10835 10832 10830 10828 10826 10823 10821 10820 10822 10822 10818 10812 10812 10808 10805 10803 10802 10800 10798 10796 10793 10790 10788 10789 10787 10785 10784 10781
10811 10816 10821 10825 10826 10828 10828 10826 10826 10825 10827 10826 10823 10822 10819 10820 10817 10814 10813 10812 10810 10809 10808 10808 10809 10806 10801 10798 10795 10793 10792 10790 10789 10788 10785 10784 10781 10777 10777 10776 10773 10771 10770
10801 10808 10812 10816 10816 10816 10814 10813 10815 10814 10814 10813 10811 10807 10804 10803 10803 10802 10800 10799 10796 10796 10794 10794 10796 10792 10788 10784 10781 10780 10780 10780 10780 10776 10775 10775 10772 10769 10766 10765 10764 10760 10758
10794 10798 10802 10805 10806 10804 10804 10802 10804 10804 10804 10802 10798 10796 10793 10791 10790 10791 10790 10789 10785 10782 10780 10778 10779 10777 10774 10770 10768 10767 10767 10768 10769 10767 10764 10762 10762 10760 10756 10752 10749 10746 10743
10788 10791 10793 10795 10794 10789 10788 10788 10790 10794 10793 10790 10786 10785 10781 10779 10779 10780 10779 10776 10772 10768 10766 10762 10765 10765 10762 10761 10757 10757 10756 10755 10755 10755 10753 10751 10749 10747 10744 10740 10737 10733 10729
10779 10783 10782 10781 10779 10776 10776 10778 10781 10782 10779 10777 10776 10772 10771 10769 10768 10768 10764 10764 10760 10757 10752 10751 10751 10757 10751 10750 10749 10746 10746 10744 10743 10742 10740 10736 10734 10732 10731 10727 10724 10719 10717
10769 10767 10770 10771 10767 10761 10763 10774 10772 10768 10767 10765 10764 10764 10762 10760 10759 10756 10754 10753 10749 10744 10741 10740 10739 10738 10742 10742 10739 10735 10734 10733 10733 10729 10728 10724 10719 10716 10715 10710 10706 10703 10699
10757 10760 10760 10760 10754 10752 10758 10761 10758 10757 10755 10755 10753 10754 10753 10751 10748 10746 10745 10741 10738 10734 10732 10728 10729 10728 10730 10730 10730 10727 10724 10721 10719 10716 10713 10712 10710 10705 10700 10697 10692 10687 10682
10742 10755 10750 10748 10745 10746 10749 10746 10749 10748 10746 10746 10745 10742 10740 10738 10737 10736 10735 10731 10730 10724 10721 10719 10718 10717 10717 10719 10717 10715 10712 10710 10708 10705 10702 10698 10693 10690 10685 10682 10677 10673 10665
10737 10742 10744 10744 10739 10737 10741 10739 10736 10736 10733 10733 10733 10730 10728 10726 10728 10725 10721 10720 10720 10716 10712 10711 10708 10707 10705 10706 10704 10701 10701 10698 10694 10691 10688 10683 10679 10674 10671 10663 10657 10653 10648
10725 10728 10732 10735 10737 10736 10731 10730 10730 10727 10725 10725 10722 10718 10716 10717 10716 10712 10711 10711 10710 10706 10704 10701 10698 10695 10691 10690 10691 10689 10684 10682 10682 10679 10674 10667 10661 10655 10647 10642 10636 10631 10627
10717 10720 10722 10722 10726 10727 10728 10725 10723 10719 10718 10716 10713 10710 10710 10709 10707 10708 10704 10702 10700 10697 10695 10692 10690 10686 10680 10676 10673 10670 10670 10666 10660 10655 10652 10648 10643 10636 10627 10622 10616 10612 10609
10712 10715 10716 10713 10715 10714 10716 10715 10713 10711 10709 10707 10708 10706 10703 10702 10701 10700 10696 10692 10690 10688 10686 10682 10677 10672 10667 10663 10658 10654 10650 10647 10642 10635 10631 10624 10618 10613 10607 10603 10596 10591 10590
10702 10705 10708 10708 10709 10707 10706 10702 10701 10700 10700 10699 10699 10698 10695 10695 10694 10691 10687 10683 10679 10676 10673 10669 10664 10659 10656 10651 10645 10639 10635 10626 10619 10613 10608 10600 10592 10587 10585 10582 10579 10575 10571
10689 10692 10694 10695 10696 10697 10699 10699 10695 10692 10695 10690 10691 10690 10689 10687 10685 10682 10678 10673 10667 10663 10659 10655 10650 10646 10640 10634 10629 10625 10622 10611 10605 10597 10591 10587 10579 10575 10572 10567 10562 10557 10552
10682 10683 10684 10685 10686 10687 10690 10691 10687 10687 10685 10684 10683 10682 10679 10678 10673 10669 10666 10660 10657 10654 10646 10641 10635 10630 10625 10619 10614 10610 10605 10597 10591 10583 10577 10568 10563 10557 10552 10546 10543 10538 10536
10676 10678 10679 10680 10680 10682 10682 10682 10679 10680 10679 10676 10674 10673 10671 10667 10664 10661 10654 10650 10644 10637 10633 10625 10620 10615 10610 10604 10596 10594 10588 10583 10574 10570 10564 10557 10548 10542 10537 10530 10526 10521 10516
10669 10670 10672 10674 10675 10677 10678 10678 10677 10674 10669 10671 10668 10665 10663 10659 10655 10651 10645 10638 10633 10627 10619 10611 10605 10598 10592 10586 10580 10576 10572 10565 10557 10550 10544 10536 10528 10521 10516 10510 10506 10501 10498
10663 10667 10669 10670 10672 10672 10670 10669 10669 10666 10666 10663 10658 10653 10650 10647 10642 10638 10631 10626 10619 10612 10606 10599 10592 10585 10577 10572 10565 10560 10555 10547 10538 10531 10524 10515 10507 10500 10494 10490 10486 10483 10479
10659 10661 10662 10664 10664 10663 10660 10660 10657 10656 10653 10650 10645 10641 10637 10635 10629 10622 10618 10611 10605 10601 10594 10589 10581 10573 10564 10555 10548 10542 10535 10526 10517 10509 10501 10492 10483 10475 10470 10466 10463 10459 10454
10654 10655 10655 10654 10652 10650 10647 10647 10644 10643 10642 10640 10637 10632 10628 10622 10616 10611 10604 10599 10595 10589 10584 10576 10567 10560 10552 10541 10532 10523 10514 10505 10496 10487 10478 10469 10460 10451 10445 10438 10432 10426 10420
10651 10650 10648 10646 10644 10640 10638 10637 10634 10634 10632 10629 10626 10621 10616 10611 10606 10601 10595 10589 10583 10577 10570 10563 10556 10548 10539 10528 10518 10507 10497 10484 10473 10463 10453 10443 10432 10422 10414 10406 10399 10392 10383
10644 10642 10639 10637 10634 10633 10631 10631 10627 10624 10622 10618 10615 10611 10607 10602 10598 10592 10586 10579 10571 10564 10556 10549 10541 10531 10523 10512 10500 10488 10479 10467 10453 10440 10429 10418 10405 10393 10379 10369 10359 10350 10342
10636 10636 10633 10630 10627 10624 10622 10621 10618 10612 10610 10607 10604 10601 10597 10592 10587 10581 10574 10566 10558 10550 10542 10535 10527 10517 10507 10496 10485 10471 10457 10446 10434 10425 10409 10396 10381 10366 10352 10340 10332 10322 10313
10627 10628 10625 10623 10619 10613 10612 10609 10606 10602 10598 10597 10594 10591 10588 10582 10575 10568 10561 10552 10545 10536 10528 10519 10510 10501 10490 10477 10465 10453 10439 10425 10411 10398 10386 10370 10355 10339 10325 10310 10301 10293 10284
10617 10617 10614 10612 10609 10604 10602 10600 10598 10595 10590 10588 10585 10582 10577 10570 10562 10554 10547 10540 10532 10522 10512 10503 10494 10482 10469 10455 10442 10430 10416 10402 10387 10372 10359 10344 10330 10313 10297 10281 10267 10256 10245